Simultaneous Nadir Overpasses (SNOs) Predictions

Prediction of SNOs between METOP-A and TERRA Satellite Orbit:

Table of predicted SNOs for the next 14.0 days since TLE Epoch: 11/22/2014
Index Date (METOP-A) Time (METOP-A) Lat,Lon (METOP-A) SZA (METOP-A ) Date (TERRA) Time (TERRA) Lat,Lon (TERRA) SZA (TERRA ) Distance(km) Time Diff (sec)
1 11/23/2014 11:11:40 -81.30,-120.95 75.34 11/23/2014 11:12:50 -81.31,-120.84 75.29 1.99 70
2 11/23/2014 12:02:19 81.31, 47.01 104.74 11/23/2014 12:02:16 81.31, 46.91 104.73 1.81 3
3 11/26/2014 06:46:04 -81.30, -54.69 74.83 11/26/2014 06:47:08 -81.30, -54.60 74.79 1.50 64
4 11/26/2014 07:36:42 81.30, 113.22 105.25 11/26/2014 07:36:33 81.30, 113.11 105.23 1.90 9
5 11/29/2014 02:20:26 -81.30, 11.87 74.34 11/29/2014 02:21:24 -81.29, 11.71 74.33 2.79 58
6 11/29/2014 03:11:05 81.31, 179.75 105.74 11/29/2014 03:10:49 81.31, 179.78 105.74 0.92 16
7 12/01/2014 21:54:49 -81.30, 78.34 73.91 12/01/2014 21:55:39 -81.31, 78.48 73.86 2.50 50
8 12/01/2014 22:45:28 81.31,-113.81 106.17 12/01/2014 22:45:05 81.31,-113.86 106.15 0.92 23
9 12/04/2014 17:29:12 -81.30, 144.73 73.54 12/04/2014 17:29:55 -81.29, 144.56 73.55 3.01 43




NCC Satellite Simultaneous Nadir Overpasses (SNOs) Prediction Service
